User: anonymous   Login
Location: Newark
(41.0400°S, 62.7845°W)
Time: 18:10:28
(UTC+00:00)
Language:

CUTE 1.7 + AOD 2 - Orbit

View from above orbital plane
View from above orbital plane
View from above satellite
View from above satellite

Ground track
Ground track

The orbit data is extracted from the following two-line orbital elements,

1 32785U 08021C   22015.77727959  .00001066  00000-0  11884-3 0  9997
2 32785  97.6379 351.7200 0013547  26.1012 334.0886 14.88989812743765
Epoch (UTC): 15 January 2022 18:39:16
Eccentricity: 0.0013547
inclination: 97.6379°
perigee height: 591 km
apogee height: 610 km
right ascension of ascending node: 351.7200°
argument of perigee: 26.1012°
revolutions per day: 14.88989812
mean anomaly at epoch: 334.0886°
orbit number at epoch: 74376

The dashed part of the orbit path shows where the satellite is in the earth's shadow,  

DLR